When you browse on this site, cookies collect data to enhance your experience and personalize the content and advertising you see.
Visit our Privacy Policy to learn more. By continuing to use the site, you agree to this use of cookies and data.
  • en Suisse
  • Liste des pays
  • À 7 jours
  • Température de l'eau
  • Carte satellitaire
  • Carte météo
  • Widgets météo
  • user-avatar
    Se connecter

    Météo par heure à Melbourne

    Ce jour, 23 Mars, Samedi

    Heure Température Précipitation Vent Pression Humidité
    00:00 +25°C° 0 mm 4 m/s 757 mmHg 59%
    01:00 +25°C° 0 mm 4 m/s 756 mmHg 58%
    02:00 +25°C° 0 mm 4 m/s 756 mmHg 56%
    03:00 +25°C° 0 mm 5 m/s 756 mmHg 55%
    04:00 +24°C° 0 mm 6 m/s 755 mmHg 54%
    05:00 +24°C° 0 mm 6 m/s 755 mmHg 53%
    06:00 +24°C° 0 mm 6 m/s 755 mmHg 53%
    07:00 +24°C° 0 mm 6 m/s 755 mmHg 52%
    08:00 +26°C° 0 mm 6 m/s 755 mmHg 50%
    09:00 +26°C° 0 mm 7 m/s 755 mmHg 48%
    10:00 +24°C° 0 mm 6 m/s 755 mmHg 56%
    11:00 +27°C° 0 mm 6 m/s 754 mmHg 49%
    12:00 +30°C° 0 mm 6 m/s 754 mmHg 41%
    13:00 +33°C° 0 mm 6 m/s 753 mmHg 34%
    14:00 +34°C° 0 mm 5 m/s 753 mmHg 32%
    15:00 +34°C° 0 mm 4 m/s 753 mmHg 31%
    16:00 +33°C° 0 mm 4 m/s 753 mmHg 40%
    17:00 +29°C° 0 mm 4 m/s 753 mmHg 50%
    18:00 +27°C° 0 mm 4 m/s 754 mmHg 60%
    19:00 +23°C° 0 mm 4 m/s 755 mmHg 71%
    20:00 +24°C° 0 mm 3 m/s 755 mmHg 71%
    21:00 +23°C° 0 mm 2 m/s 756 mmHg 72%
    22:00 +23°C° 0 mm 1 m/s 756 mmHg 73%
    23:00 +22°C° 0 mm 1 m/s 756 mmHg 74%

    Demain, 24 Mars, Dimanche

    Heure Température Précipitation Vent Pression Humidité
    00:00 +22°C° 0 mm 1 m/s 757 mmHg 75%
    01:00 +21°C° 0 mm 1 m/s 757 mmHg 76%
    02:00 +21°C° 0 mm 1 m/s 757 mmHg 77%
    03:00 +20°C° 0 mm 1 m/s 756 mmHg 77%
    04:00 +20°C° 0 mm 1 m/s 756 mmHg 78%
    05:00 +18°C° 0 mm 0 m/s 756 mmHg 79%
    06:00 +18°C° 0 mm 0 m/s 756 mmHg 80%
    07:00 +18°C° 0 mm 0 m/s 756 mmHg 81%
    08:00 +22°C° 0 mm 1 m/s 756 mmHg 71%
    09:00 +24°C° 0 mm 2 m/s 756 mmHg 61%
    10:00 +26°C° 0 mm 3 m/s 756 mmHg 52%
    11:00 +28°C° 0 mm 4 m/s 755 mmHg 46%
    12:00 +29°C° 0 mm 4 m/s 754 mmHg 40%
    13:00 +32°C° 0 mm 5 m/s 753 mmHg 34%
    14:00 +32°C° 0 mm 5 m/s 752 mmHg 34%
    15:00 +32°C° 0 mm 5 m/s 751 mmHg 34%
    16:00 +32°C° 0 mm 5 m/s 750 mmHg 35%
    17:00 +29°C° 0.7 mm 6 m/s 750 mmHg 43%
    18:00 +28°C° 0.7 mm 7 m/s 750 mmHg 51%
    19:00 +26°C° 0.7 mm 8 m/s 750 mmHg 60%
    20:00 +26°C° 0.1 mm 7 m/s 750 mmHg 62%
    21:00 +24°C° 0.1 mm 7 m/s 750 mmHg 64%
    22:00 +24°C° 0.1 mm 7 m/s 750 mmHg 66%
    23:00 +24°C° 0.8 mm 7 m/s 750 mmHg 67%

    Après-demain, 25 Mars, Lundi

    Heure Température Précipitation Vent Pression Humidité
    00:00 +23°C° 0.8 mm 7 m/s 750 mmHg 68%
    01:00 +23°C° 0.8 mm 6 m/s 750 mmHg 69%
    02:00 +22°C° 0.1 mm 6 m/s 750 mmHg 66%
    03:00 +21°C° 0.1 mm 6 m/s 750 mmHg 64%
    04:00 +20°C° 0.1 mm 5 m/s 750 mmHg 62%
    05:00 +19°C° 0 mm 5 m/s 751 mmHg 59%
    06:00 +17°C° 0 mm 5 m/s 752 mmHg 56%
    07:00 +16°C° 0 mm 5 m/s 752 mmHg 54%
    08:00 +17°C° 0 mm 6 m/s 753 mmHg 48%
    09:00 +17°C° 0 mm 7 m/s 754 mmHg 43%
    10:00 +17°C° 0 mm 7 m/s 754 mmHg 38%
    11:00 +17°C° 0.1 mm 7 m/s 755 mmHg 39%
    12:00 +16°C° 0.1 mm 7 m/s 755 mmHg 41%
    13:00 +16°C° 0.1 mm 7 m/s 755 mmHg 43%
    14:00 +15°C° 0.1 mm 7 m/s 756 mmHg 43%
    15:00 +15°C° 0.1 mm 7 m/s 756 mmHg 42%
    16:00 +15°C° 0.1 mm 7 m/s 757 mmHg 42%
    17:00 +14°C° 0 mm 7 m/s 758 mmHg 41%
    18:00 +14°C° 0 mm 6 m/s 758 mmHg 40%
    19:00 +13°C° 0 mm 5 m/s 759 mmHg 40%
    20:00 +13°C° 0 mm 5 m/s 760 mmHg 41%
    21:00 +12°C° 0 mm 5 m/s 761 mmHg 43%
    22:00 +12°C° 0 mm 5 m/s 761 mmHg 44%
    23:00 +12°C° 0 mm 5 m/s 762 mmHg 46%

    26 Mars, Mardi

    Heure Température Précipitation Vent Pression Humidité
    00:00 +10°C° 0 mm 5 m/s 762 mmHg 48%
    01:00 +10°C° 0 mm 6 m/s 762 mmHg 50%
    02:00 +10°C° 0 mm 5 m/s 762 mmHg 52%
    03:00 +10°C° 0 mm 5 m/s 762 mmHg 55%
    04:00 +10°C° 0 mm 5 m/s 762 mmHg 57%
    05:00 +10°C° 0 mm 5 m/s 763 mmHg 59%
    06:00 +10°C° 0 mm 5 m/s 763 mmHg 61%
    07:00 +11°C° 0 mm 4 m/s 764 mmHg 63%
    08:00 +13°C° 0 mm 5 m/s 764 mmHg 58%
    09:00 +15°C° 0 mm 5 m/s 765 mmHg 53%
    10:00 +16°C° 0 mm 5 m/s 765 mmHg 48%
    11:00 +17°C° 0 mm 5 m/s 765 mmHg 45%
    12:00 +19°C° 0 mm 4 m/s 765 mmHg 43%
    13:00 +20°C° 0 mm 4 m/s 765 mmHg 40%
    14:00 +21°C° 0 mm 4 m/s 765 mmHg 40%
    15:00 +21°C° 0 mm 4 m/s 765 mmHg 40%
    16:00 +21°C° 0 mm 3 m/s 764 mmHg 40%
    17:00 +20°C° 0 mm 3 m/s 765 mmHg 44%
    18:00 +19°C° 0 mm 3 m/s 765 mmHg 48%
    19:00 +18°C° 0 mm 2 m/s 766 mmHg 52%
    20:00 +18°C° 0 mm 2 m/s 766 mmHg 56%
    21:00 +17°C° 0 mm 2 m/s 767 mmHg 60%
    22:00 +16°C° 0 mm 2 m/s 768 mmHg 64%
    23:00 +16°C° 0 mm 2 m/s 767 mmHg 68%

    27 Mars, Mercredi

    Heure Température Précipitation Vent Pression Humidité
    00:00 +15°C° 0 mm 2 m/s 767 mmHg 71%
    01:00 +15°C° 0 mm 2 m/s 767 mmHg 75%
    02:00 +15°C° 0 mm 2 m/s 767 mmHg 78%
    03:00 +14°C° 0 mm 1 m/s 767 mmHg 80%
    04:00 +14°C° 0 mm 1 m/s 767 mmHg 83%
    05:00 +14°C° 0 mm 1 m/s 767 mmHg 84%
    06:00 +14°C° 0 mm 1 m/s 768 mmHg 85%
    07:00 +14°C° 0 mm 1 m/s 768 mmHg 86%
    08:00 +16°C° 0 mm 1 m/s 768 mmHg 77%
    09:00 +17°C° 0 mm 0 m/s 768 mmHg 68%
    10:00 +19°C° 0 mm 0 m/s 768 mmHg 58%
    11:00 +23°C° 0 mm 1 m/s 768 mmHg 52%
    12:00 +25°C° 0 mm 1 m/s 767 mmHg 45%
    13:00 +26°C° 0 mm 1 m/s 767 mmHg 39%
    14:00 +26°C° 0 mm 1 m/s 766 mmHg 38%
    15:00 +26°C° 0 mm 2 m/s 765 mmHg 37%
    16:00 +26°C° 0 mm 2 m/s 765 mmHg 36%
    17:00 +25°C° 0 mm 2 m/s 765 mmHg 43%
    18:00 +22°C° 0 mm 3 m/s 765 mmHg 50%
    19:00 +20°C° 0 mm 3 m/s 765 mmHg 57%
    20:00 +19°C° 0 mm 3 m/s 765 mmHg 62%
    21:00 +19°C° 0 mm 3 m/s 765 mmHg 67%
    22:00 +18°C° 0 mm 2 m/s 765 mmHg 72%
    23:00 +17°C° 0 mm 2 m/s 765 mmHg 71%

    28 Mars, Jeudi

    Heure Température Précipitation Vent Pression Humidité
    00:00 +18°C° 0 mm 1 m/s 764 mmHg 71%
    01:00 +18°C° 0 mm 1 m/s 763 mmHg 70%
    02:00 +16°C° 0 mm 1 m/s 763 mmHg 66%
    03:00 +16°C° 0 mm 2 m/s 763 mmHg 63%
    04:00 +16°C° 0 mm 2 m/s 762 mmHg 59%
    05:00 +17°C° 0 mm 3 m/s 762 mmHg 61%
    06:00 +17°C° 0 mm 4 m/s 763 mmHg 63%
    07:00 +18°C° 0 mm 4 m/s 763 mmHg 65%
    08:00 +19°C° 0 mm 5 m/s 762 mmHg 61%
    09:00 +21°C° 0 mm 5 m/s 762 mmHg 58%
    10:00 +23°C° 0 mm 5 m/s 762 mmHg 55%
    11:00 +25°C° 0 mm 5 m/s 761 mmHg 51%
    12:00 +27°C° 0 mm 5 m/s 760 mmHg 48%
    13:00 +28°C° 0 mm 5 m/s 759 mmHg 44%
    14:00 +29°C° 0 mm 5 m/s 759 mmHg 44%
    15:00 +29°C° 0 mm 4 m/s 758 mmHg 44%
    16:00 +29°C° 0 mm 4 m/s 758 mmHg 44%
    17:00 +28°C° 0.1 mm 4 m/s 758 mmHg 49%
    18:00 +26°C° 0.1 mm 3 m/s 758 mmHg 54%
    19:00 +25°C° 0.1 mm 3 m/s 758 mmHg 59%
    20:00 +24°C° 0 mm 2 m/s 759 mmHg 63%
    21:00 +21°C° 0 mm 2 m/s 759 mmHg 68%
    22:00 +20°C° 0 mm 2 m/s 759 mmHg 72%
    23:00 +20°C° 0 mm 1 m/s 759 mmHg 74%
    Voir plus